Location: Unspecified
(0.0000°N, 0.0000°E)
Time: 18:47:32
(UTC+00:00)

Explorer 7 - Pass Details

Date: 24 November 2019
Orbit: 485 x 680 km, 50.3° (Epoch: 06 December)

Event Time Altitude Azimuth Distance (km) Brightness Sun altitude
Rises 08:00:34 0° 291° (WNW) 2,551 9.7 31.1°
Reaches altitude 10° 08:03:37 10° 264° (W) 1,660 8.9 31.8°
Maximum altitude 08:05:35 14° 232° (SW) 1,438 8.8 32.3°
Drops below altitude 10° 08:07:33 10° 200° (SSW) 1,661 9.4 32.7°
Sets 08:10:37 0° 173° (S) 2,553 10.6 33.4°
